COSMOS 2499 DEB, 60618

Orbit data source: Space-Track

COSMOS 2499 DEB, 60618 is space debris in LEO originally from a launch on Fri, 23 May 2014 UTC launched from the Plesetsk Missile And Space Complex (PKMTR). Debris objects in space refer to the collection of defunct objects orbiting the Earth. Examples of debris include non-operational satellites, rocket bodies, and fragments generated from explosions, collisions, or faulty payload assembly.

Loading next visibility...
Identifier
60618, 2014-028CE
Orbit
LEO
Country
Flag of CISCIS
Related business
Manufacturer
TsNIIKhM
Mission
Spacecraft
Bus & Motor
Unknown
Mass
Unknown
Launch date (UTC)
2014-05-23 (12 years ago)
Launch vehicle
Unknown
Launch site
Plesetsk Missile And Space Complex (PKMTR)
Object type
Payload
Rocket body
Debris
Shape & HBR
Unknown shape, 0.1 m
Radar Cross Section
Small (<0.1 m²)

Expand to show TLE details & history
Last TLE update: 8 months ago

TLE from 8 months ago
0 COSMOS 2499 DEB
1 60618U 14028CE  25098.36670184  .00025756  00000-0  53735-1 0  9994
2 60618  82.2454 150.3589 0335287 215.9713 141.8421 13.12638763104708
Epoch: 2025-04-08T08:48Z
TLE epoch observation values (Epoch: 2025-04-08T08:48:03.038Z)
Latitude
-0.00003°
Longitude
-178.52256°
Altitude
1,419.062 km
Speed
7.055 km/s
True Right ascension
10h 01m 26s
True Declination
0° 00' 00"
Sunlit
Object was in full shadow at epoch
Visualization orbit readout
Latitude
Unknown
Longitude
Unknown
Altitude
Unknown
Speed
Unknown
Apparent Right ascension
Unknown
Apparent Declination
Unknown
Sunlit
N/A
Visualization observer readout
Local Sidereal Time
20:23:30
Azimuth
Unknown
Elevation
Unknown
Doppler factor
Unknown
Orbital elements
Apogee altitude
1,464.655 km
Perigee altitude
955.799 km
Semi-major axis
7,588.364 km
Eccentricity
0.03353
Inclination
82.2454°
RAAN
150.3589°
Arg. of periapsis
215.9713°
True anomaly
144.13943°
Mean anomaly
141.8421°
Eccentric anomaly
142.99827°
Mean motion
3.28338 °/min
Orbital period
109.64 mins
BSTAR
0.053735
Loading maneuver chart data...
Computing Atmospheric mass density...
Loading historical data...
Loading historical data...
Loading historical data...
Loading historical data...
Loading historical data...
Loading historical data...
Loading historical data...

Documentation

Showing up to 5 results
|